Buoy 41936

sailwx.info

Track history (hours):
 
Tides and Currents Weather Stations Pressure Air Temp Water Temp Dewpoint Dewpoint Depression Visibility Wind Speed Wind Dir Waves Ship Positions

Drifting buoy 41936

Last reported at 2014-Nov-28 14:00 UTC. Time now 2014-Nov-28 14:40 UTC.
Position N 30°08' W 064°46'.

Barometer 1013.1 mb
Water temperature 24.9 ° C

Date/timePositionNaut miles runAvg speedWind from/ knotsBaromVisibWave heightAir tempDewpointWater temp
2014-Nov-28 14:00N 30°08' W 064°46'0 0.0 1013.1 24.9
2014-Nov-28 13:00N 30°08' W 064°46'3 1.3 1012.7 24.9
2014-Nov-28 11:00N 30°11' W 064°47'1 1.2 1011.2 24.8
2014-Nov-28 10:00N 30°11' W 064°46'0 0.0 1011.3 24.9
2014-Nov-28 08:00N 30°11' W 064°46'0 0.0 1010.9 24.9
2014-Nov-28 07:00N 30°11' W 064°46'0 0.0 1011.6 24.9
2014-Nov-28 06:00N 30°11' W 064°46'2 0.5 1012.4 24.9
2014-Nov-28 02:00N 30°10' W 064°44'1 1.0 1014.5 24.9
2014-Nov-28 01:00N 30°10' W 064°43'2 0.8 1014.9 24.9
2014-Nov-27 23:00N 30°09' W 064°42'1 0.8 1015.2 24.9
2014-Nov-27 22:00N 30°08' W 064°41'1 0.8 1015.2 24.9
2014-Nov-27 21:00N 30°08' W 064°41'3 0.9 1015.3 24.9
2014-Nov-27 18:00N 30°07' W 064°38'0 0.3 1015.8 25.0
2014-Nov-27 17:00N 30°07' W 064°38'1 0.6 1016.3 25.0
2014-Nov-27 15:00N 30°07' W 064°37'0 0.0 1018.9 24.9
2014-Nov-27 14:00N 30°07' W 064°37'2 0.7 1019.4 24.9
2014-Nov-27 11:00N 30°05' W 064°35'1 0.5 1019.8 24.9
2014-Nov-27 10:00N 30°05' W 064°34'1 1.0 1019.6 24.9
2014-Nov-27 09:00N 30°05' W 064°35'0 0.0 1019.5 24.9
2014-Nov-27 08:00N 30°05' W 064°35'0 0.0 1020.0 24.9
2014-Nov-27 07:00N 30°05' W 064°35'0 0.0 1020.2 24.9
2014-Nov-27 06:00N 30°05' W 064°35'2 0.6 1020.6 24.9
2014-Nov-27 02:00N 30°03' W 064°36'0 0.0 1021.9 24.9
2014-Nov-27 01:00N 30°03' W 064°36'0 0.0 1022.1 24.9
2014-Nov-27 00:00N 30°03' W 064°36'2 1.2 1022.4 25.0
2014-Nov-26 22:00N 30°01' W 064°34'3 0.6 1022.5 25.0
2014-Nov-26 18:00N 30°01' W 064°31'2 1.1 1022.7 25.1
2014-Nov-26 16:00N 30°02' W 064°29'0 0.0 1023.8 25.0
2014-Nov-26 15:00N 30°02' W 064°29'0 0.0 1024.8 25.0
2014-Nov-26 14:00N 30°02' W 064°29'2 2.0 1025.3 25.0
2014-Nov-26 13:00N 30°04' W 064°28'0 0.0 1025.1 25.0
2014-Nov-26 10:00N 30°04' W 064°28'1 0.5 1024.2 25.0
2014-Nov-26 09:00N 30°04' W 064°28'2 1.6 1023.9 25.0
2014-Nov-26 08:00N 30°03' W 064°26'0 0.1 1024.0 25.0
2014-Nov-26 07:00N 30°04' W 064°26'5 1.0 1024.1 25.0
2014-Nov-26 02:00N 30°00' W 064°23'0 0.0 1025.7 25.0
2014-Nov-26 01:00N 30°00' W 064°23'3 1.3 1025.8 25.0
2014-Nov-25 23:00N 29°59' W 064°20'3 1.7 1025.3 25.0
2014-Nov-25 21:00N 29°57' W 064°17'1 0.6 1025.4 25.1
2014-Nov-25 20:00N 29°57' W 064°16'1 0.7 1025.0 25.1
2014-Nov-25 18:00N 29°56' W 064°15'2 0.6 1025.8 25.1
2014-Nov-25 15:00N 29°56' W 064°13'1 1.2 1027.6 25.1
2014-Nov-25 14:00N 29°56' W 064°12'0 0.0 1027.6 25.1
2014-Nov-25 13:00N 29°56' W 064°12'1 0.3 1027.3 25.1
2014-Nov-25 11:00N 29°56' W 064°13'1 1.2 1026.7 25.1
2014-Nov-25 10:00N 29°55' W 064°13'1 0.6 1026.3 25.1
2014-Nov-25 09:00N 29°54' W 064°13'0 0.0 1025.9 25.1
2014-Nov-25 07:00N 29°54' W 064°13'3 0.7 1025.7 25.1
2014-Nov-25 02:00N 29°51' W 064°11'0 0.0 1026.9 25.1
2014-Nov-25 01:00N 29°51' W 064°11'1 0.4 1026.9 25.1
2014-Nov-24 23:00N 29°50' W 064°10'1 1.2 1026.4 25.1
2014-Nov-24 22:00N 29°50' W 064°09'1 0.5 1025.9 25.1
2014-Nov-24 21:00N 29°50' W 064°08'0 0.0 1025.5 25.1
2014-Nov-24 20:00N 29°50' W 064°08'1 0.8 1025.0 25.1
2014-Nov-24 19:00N 29°49' W 064°08'1 1.2 1024.8 25.2
2014-Nov-24 18:00N 29°50' W 064°07'0 0.0 1024.7 25.2
2014-Nov-24 15:00N 29°50' W 064°07'1 0.6 1026.5 25.1
2014-Nov-24 14:00N 29°49' W 064°06'0 0.0 1026.6 25.1
2014-Nov-24 10:00N 29°49' W 064°06'1 0.5 1025.4 25.1
2014-Nov-24 09:00N 29°49' W 064°07'1 1.0 1025.1 25.2
2014-Nov-24 08:00N 29°48' W 064°07'3 3.2 1025.2 25.1
2014-Nov-24 07:00N 29°45' W 064°07'1 0.2 1025.5 25.1
2014-Nov-24 02:00N 29°46' W 064°06'0 0.0 1026.4 25.2
2014-Nov-24 01:00N 29°46' W 064°06'0 0.0 1026.1 25.2
2014-Nov-24 00:00N 29°46' W 064°06'3 3.0 1025.7 25.2
2014-Nov-23 23:00N 29°44' W 064°03'0 0.5 1025.4 25.2
2014-Nov-23 22:00N 29°44' W 064°02'0 0.0 1024.9 25.2
2014-Nov-23 21:00N 29°44' W 064°02'1 1.0 1024.7 25.2
2014-Nov-23 20:00N 29°44' W 064°01'0 0.0 1024.9 25.2
2014-Nov-23 19:00N 29°44' W 064°01'0 0.0 1025.1 25.2
2014-Nov-23 18:00N 29°44' W 064°01'1 0.3 1025.7 25.2
2014-Nov-23 15:00N 29°45' W 064°01'1 1.0 1027.2 25.2
2014-Nov-23 14:00N 29°45' W 064°02'0 0.0 1027.6 25.2
2014-Nov-23 13:00N 29°45' W 064°02'0 0.0 1027.3 25.2
2014-Nov-23 12:00N 29°45' W 064°02'0 0.0 1026.9 25.2
2014-Nov-23 11:00N 29°45' W 064°02'1 0.8 1026.4 25.2
2014-Nov-23 10:00N 29°44' W 064°01'0 0.0 1026.1 25.2
2014-Nov-23 09:00N 29°44' W 064°01'0 0.2 1025.3 25.2
2014-Nov-23 08:00N 29°44' W 064°01'2 1.7 1025.2 25.2
2014-Nov-23 07:00N 29°43' W 064°01'0 0.0 1025.5 25.2
2014-Nov-23 06:00N 29°43' W 064°01'1 0.3 1025.5 25.2
2014-Nov-23 02:00N 29°41' W 064°00'1 0.5 1026.7 25.3
2014-Nov-23 01:00N 29°41' W 063°59'2 1.1 1026.5 25.3
2014-Nov-22 23:00N 29°41' W 063°57'1 0.5 1025.9 25.3
2014-Nov-22 21:00N 29°41' W 063°56'0 0.0 1025.5 25.4
2014-Nov-22 20:00N 29°41' W 063°56'1 0.6 1025.2 25.4
2014-Nov-22 19:00N 29°41' W 063°56'0 0.0 1025.0 25.4
2014-Nov-22 17:00N 29°41' W 063°56'2 1.7 1025.3 25.4
2014-Nov-22 16:00N 29°42' W 063°54'2 1.7 1024.0 -0.1
2014-Nov-22 15:00N 29°43' W 063°56'1 1.0 1026.1 25.4
2014-Nov-22 14:00N 29°43' W 063°57'1 0.2 1026.1 25.4
2014-Nov-22 11:00N 29°42' W 063°57'1 0.8 1023.8 25.3
2014-Nov-22 10:00N 29°43' W 063°56'0 0.1 1023.4 25.4
2014-Nov-22 09:00N 29°42' W 063°56'0 0.1 1023.0 25.4
2014-Nov-22 08:00N 29°43' W 063°56'0 0.0 1022.7 25.4
2014-Nov-22 07:00N 29°43' W 063°56'0 0.0 1022.5 25.4
2014-Nov-22 06:00N 29°43' W 063°56'0 0.4 1022.4 25.4
2014-Nov-22 05:00N 29°42' W 063°57'2 0.5 1023.1 25.4
2014-Nov-22 02:00N 29°41' W 063°55'3 2.7 1023.1 25.4
2014-Nov-22 01:00N 29°42' W 063°52'1 0.3 1022.8 25.4
2014-Nov-21 21:00N 29°43' W 063°52'0 0.0 1021.5 25.5
2014-Nov-21 19:00N 29°43' W 063°52'1 0.6 1020.0 25.5
2014-Nov-21 17:00N 29°44' W 063°50'2 0.8 1020.5 25.5
2014-Nov-21 15:00N 29°45' W 063°51'0 0.2 1021.3 25.4
2014-Nov-21 14:00N 29°46' W 063°51'1 0.8 1021.2 25.4
2014-Nov-21 13:00N 29°46' W 063°52'1 0.4 1020.6 25.4
2014-Nov-21 10:00N 29°45' W 063°52'1 1.2 1018.8 25.4
2014-Nov-21 09:00N 29°46' W 063°52'2 1.6 1018.2 25.4
2014-Nov-21 08:00N 29°45' W 063°51'0 0.0 1018.5 25.4
2014-Nov-21 07:00N 29°45' W 063°51'0 0.0 1018.7 25.5
2014-Nov-21 06:00N 29°45' W 063°51'0 0.0 1019.0 25.5
2014-Nov-21 05:00N 29°45' W 063°51'1 0.6 1019.0 25.5
2014-Nov-21 03:00N 29°44' W 063°50'1 0.5 1019.5 25.5
2014-Nov-21 02:00N 29°44' W 063°50'1 1.2 1019.6 25.5
2014-Nov-21 01:00N 29°44' W 063°49'1 0.5 1019.7 25.5
2014-Nov-21 00:00N 29°44' W 063°50'1 1.3 1019.7 25.5
2014-Nov-20 23:00N 29°44' W 063°48'0 0.3 1019.0 25.5
2014-Nov-20 22:00N 29°44' W 063°49'1 0.8 1018.6 25.5
2014-Nov-20 21:00N 29°45' W 063°49'1 0.5 1018.6 25.5
2014-Nov-20 19:00N 29°45' W 063°48'0 0.0 1018.5 25.5
2014-Nov-20 18:00N 29°45' W 063°48'0 0.2 1019.0 25.5
2014-Nov-20 17:00N 29°45' W 063°48'0 0.2 1019.5 25.5
2014-Nov-20 15:00N 29°45' W 063°49'0 0.0 1021.1 25.5
2014-Nov-20 14:00N 29°45' W 063°49'0 0.0 1021.2 25.5
2014-Nov-20 13:00N 29°45' W 063°49'2 0.5 1020.4 25.5
2014-Nov-20 10:00N 29°44' W 063°50'1 0.6 1018.7 25.5
2014-Nov-20 09:00N 29°43' W 063°50'1 0.8 1018.1 25.5
2014-Nov-20 08:00N 29°43' W 063°49'0 0.0 1018.0 25.5
2014-Nov-20 06:00N 29°43' W 063°49'2 0.4 1019.1 25.5
2014-Nov-20 02:00N 29°42' W 063°47'0 0.2 1020.0 25.5
2014-Nov-20 01:00N 29°42' W 063°47'1 0.7 1019.8 25.5
2014-Nov-20 00:00N 29°43' W 063°47'0 0.2 1019.9 25.5
2014-Nov-19 23:00N 29°43' W 063°47'1 0.5 1019.8 25.5
2014-Nov-19 22:00N 29°43' W 063°47'1 0.8 1019.4 25.5
2014-Nov-19 21:00N 29°43' W 063°46'0 0.0 1019.2 25.5
2014-Nov-19 20:00N 29°43' W 063°46'1 0.3 1018.7 25.6
2014-Nov-19 18:00N 29°43' W 063°47'0 0.0 1018.6 25.6
2014-Nov-19 17:00N 29°43' W 063°47'1 0.3 1019.0 25.5
2014-Nov-19 15:00N 29°43' W 063°47'0 0.0 1020.7 25.5
2014-Nov-19 14:00N 29°43' W 063°47'1 1.0 1021.2 25.5
2014-Nov-19 13:00N 29°43' W 063°49'0 0.0 1020.6 25.5
2014-Nov-19 11:00N 29°43' W 063°49'1 1.0 1019.5 25.5
2014-Nov-19 10:00N 29°42' W 063°49'0 0.3 1019.2 25.5
2014-Nov-19 09:00N 29°42' W 063°49'1 0.8 1019.0 25.5
2014-Nov-19 08:00N 29°41' W 063°48'0 0.0 1018.7 25.5
2014-Nov-19 07:00N 29°41' W 063°48'0 0.0 1018.9 25.5
2014-Nov-19 06:00N 29°41' W 063°48'2 0.5 1018.6 25.5
2014-Nov-19 03:00N 29°41' W 063°46'0 0.0 1019.3 25.5
2014-Nov-19 02:00N 29°41' W 063°46'1 0.8 1019.5 25.5
2014-Nov-19 01:00N 29°42' W 063°47'1 0.2 1019.8 25.6
2014-Nov-18 22:00N 29°41' W 063°47'1 0.6 1019.4 25.6
2014-Nov-18 21:00N 29°42' W 063°47'1 0.3 1019.4 25.6
2014-Nov-18 18:00N 29°42' W 063°48'0 0.1 1020.5 25.6
2014-Nov-18 15:00N 29°41' W 063°47'2 2.5 1022.0 25.6
2014-Nov-18 14:00N 29°39' W 063°48'   1022.4 25.6
Track history (hours):
 
Tides and Currents Weather Stations Pressure Air Temp Water Temp Dewpoint Dewpoint Depression Visibility Wind Speed Wind Dir Waves Ship Positions

Drifting buoy 41936

Last reported at 2014-Nov-28 14:00 UTC. Time now 2014-Nov-28 14:40 UTC.
Position N 30°08' W 064°46'.

Barometer 1013.1 mb
Water temperature 24.9 ° C

Date/timePositionNaut miles runAvg speedWind from/ knotsBaromVisibWave heightAir tempDewpointWater temp
2014-Nov-28 14:00N 30°08' W 064°46'0 0.0 1013.1 24.9
2014-Nov-28 13:00N 30°08' W 064°46'3 1.3 1012.7 24.9
2014-Nov-28 11:00N 30°11' W 064°47'1 1.2 1011.2 24.8
2014-Nov-28 10:00N 30°11' W 064°46'0 0.0 1011.3 24.9
2014-Nov-28 08:00N 30°11' W 064°46'0 0.0 1010.9 24.9
2014-Nov-28 07:00N 30°11' W 064°46'0 0.0 1011.6 24.9
2014-Nov-28 06:00N 30°11' W 064°46'2 0.5 1012.4 24.9
2014-Nov-28 02:00N 30°10' W 064°44'1 1.0 1014.5 24.9
2014-Nov-28 01:00N 30°10' W 064°43'2 0.8 1014.9 24.9
2014-Nov-27 23:00N 30°09' W 064°42'1 0.8 1015.2 24.9
2014-Nov-27 22:00N 30°08' W 064°41'1 0.8 1015.2 24.9
2014-Nov-27 21:00N 30°08' W 064°41'3 0.9 1015.3 24.9
2014-Nov-27 18:00N 30°07' W 064°38'0 0.3 1015.8 25.0
2014-Nov-27 17:00N 30°07' W 064°38'1 0.6 1016.3 25.0
2014-Nov-27 15:00N 30°07' W 064°37'0 0.0 1018.9 24.9
2014-Nov-27 14:00N 30°07' W 064°37'2 0.7 1019.4 24.9
2014-Nov-27 11:00N 30°05' W 064°35'1 0.5 1019.8 24.9
2014-Nov-27 10:00N 30°05' W 064°34'1 1.0 1019.6 24.9
2014-Nov-27 09:00N 30°05' W 064°35'0 0.0 1019.5 24.9
2014-Nov-27 08:00N 30°05' W 064°35'0 0.0 1020.0 24.9
2014-Nov-27 07:00N 30°05' W 064°35'0 0.0 1020.2 24.9
2014-Nov-27 06:00N 30°05' W 064°35'2 0.6 1020.6 24.9
2014-Nov-27 02:00N 30°03' W 064°36'0 0.0 1021.9 24.9
2014-Nov-27 01:00N 30°03' W 064°36'0 0.0 1022.1 24.9
2014-Nov-27 00:00N 30°03' W 064°36'2 1.2 1022.4 25.0
2014-Nov-26 22:00N 30°01' W 064°34'3 0.6 1022.5 25.0
2014-Nov-26 18:00N 30°01' W 064°31'2 1.1 1022.7 25.1
2014-Nov-26 16:00N 30°02' W 064°29'0 0.0 1023.8 25.0
2014-Nov-26 15:00N 30°02' W 064°29'0 0.0 1024.8 25.0
2014-Nov-26 14:00N 30°02' W 064°29'2 2.0 1025.3 25.0
2014-Nov-26 13:00N 30°04' W 064°28'0 0.0 1025.1 25.0
2014-Nov-26 10:00N 30°04' W 064°28'1 0.5 1024.2 25.0
2014-Nov-26 09:00N 30°04' W 064°28'2 1.6 1023.9 25.0
2014-Nov-26 08:00N 30°03' W 064°26'0 0.1 1024.0 25.0
2014-Nov-26 07:00N 30°04' W 064°26'5 1.0 1024.1 25.0
2014-Nov-26 02:00N 30°00' W 064°23'0 0.0 1025.7 25.0
2014-Nov-26 01:00N 30°00' W 064°23'3 1.3 1025.8 25.0
2014-Nov-25 23:00N 29°59' W 064°20'3 1.7 1025.3 25.0
2014-Nov-25 21:00N 29°57' W 064°17'1 0.6 1025.4 25.1
2014-Nov-25 20:00N 29°57' W 064°16'1 0.7 1025.0 25.1
2014-Nov-25 18:00N 29°56' W 064°15'2 0.6 1025.8 25.1
2014-Nov-25 15:00N 29°56' W 064°13'1 1.2 1027.6 25.1
2014-Nov-25 14:00N 29°56' W 064°12'0 0.0 1027.6 25.1
2014-Nov-25 13:00N 29°56' W 064°12'1 0.3 1027.3 25.1
2014-Nov-25 11:00N 29°56' W 064°13'1 1.2 1026.7 25.1
2014-Nov-25 10:00N 29°55' W 064°13'1 0.6 1026.3 25.1
2014-Nov-25 09:00N 29°54' W 064°13'0 0.0 1025.9 25.1
2014-Nov-25 07:00N 29°54' W 064°13'3 0.7 1025.7 25.1
2014-Nov-25 02:00N 29°51' W 064°11'0 0.0 1026.9 25.1
2014-Nov-25 01:00N 29°51' W 064°11'1 0.4 1026.9 25.1
2014-Nov-24 23:00N 29°50' W 064°10'1 1.2 1026.4 25.1
2014-Nov-24 22:00N 29°50' W 064°09'1 0.5 1025.9 25.1
2014-Nov-24 21:00N 29°50' W 064°08'0 0.0 1025.5 25.1
2014-Nov-24 20:00N 29°50' W 064°08'1 0.8 1025.0 25.1
2014-Nov-24 19:00N 29°49' W 064°08'1 1.2 1024.8 25.2
2014-Nov-24 18:00N 29°50' W 064°07'0 0.0 1024.7 25.2
2014-Nov-24 15:00N 29°50' W 064°07'1 0.6 1026.5 25.1
2014-Nov-24 14:00N 29°49' W 064°06'0 0.0 1026.6 25.1
2014-Nov-24 10:00N 29°49' W 064°06'1 0.5 1025.4 25.1
2014-Nov-24 09:00N 29°49' W 064°07'1 1.0 1025.1 25.2
2014-Nov-24 08:00N 29°48' W 064°07'3 3.2 1025.2 25.1
2014-Nov-24 07:00N 29°45' W 064°07'1 0.2 1025.5 25.1
2014-Nov-24 02:00N 29°46' W 064°06'0 0.0 1026.4 25.2
2014-Nov-24 01:00N 29°46' W 064°06'0 0.0 1026.1 25.2
2014-Nov-24 00:00N 29°46' W 064°06'3 3.0 1025.7 25.2
2014-Nov-23 23:00N 29°44' W 064°03'0 0.5 1025.4 25.2
2014-Nov-23 22:00N 29°44' W 064°02'0 0.0 1024.9 25.2
2014-Nov-23 21:00N 29°44' W 064°02'1 1.0 1024.7 25.2
2014-Nov-23 20:00N 29°44' W 064°01'0 0.0 1024.9 25.2
2014-Nov-23 19:00N 29°44' W 064°01'0 0.0 1025.1 25.2
2014-Nov-23 18:00N 29°44' W 064°01'1 0.3 1025.7 25.2
2014-Nov-23 15:00N 29°45' W 064°01'1 1.0 1027.2 25.2
2014-Nov-23 14:00N 29°45' W 064°02'0 0.0 1027.6 25.2
2014-Nov-23 13:00N 29°45' W 064°02'0 0.0 1027.3 25.2
2014-Nov-23 12:00N 29°45' W 064°02'0 0.0 1026.9 25.2
2014-Nov-23 11:00N 29°45' W 064°02'1 0.8 1026.4 25.2
2014-Nov-23 10:00N 29°44' W 064°01'0 0.0 1026.1 25.2
2014-Nov-23 09:00N 29°44' W 064°01'0 0.2 1025.3 25.2
2014-Nov-23 08:00N 29°44' W 064°01'2 1.7 1025.2 25.2
2014-Nov-23 07:00N 29°43' W 064°01'0 0.0 1025.5 25.2
2014-Nov-23 06:00N 29°43' W 064°01'1 0.3 1025.5 25.2
2014-Nov-23 02:00N 29°41' W 064°00'1 0.5 1026.7 25.3
2014-Nov-23 01:00N 29°41' W 063°59'2 1.1 1026.5 25.3
2014-Nov-22 23:00N 29°41' W 063°57'1 0.5 1025.9 25.3
2014-Nov-22 21:00N 29°41' W 063°56'0 0.0 1025.5 25.4
2014-Nov-22 20:00N 29°41' W 063°56'1 0.6 1025.2 25.4
2014-Nov-22 19:00N 29°41' W 063°56'0 0.0 1025.0 25.4
2014-Nov-22 17:00N 29°41' W 063°56'2 1.7 1025.3 25.4
2014-Nov-22 16:00N 29°42' W 063°54'2 1.7 1024.0 -0.1
2014-Nov-22 15:00N 29°43' W 063°56'1 1.0 1026.1 25.4
2014-Nov-22 14:00N 29°43' W 063°57'1 0.2 1026.1 25.4
2014-Nov-22 11:00N 29°42' W 063°57'1 0.8 1023.8 25.3
2014-Nov-22 10:00N 29°43' W 063°56'0 0.1 1023.4 25.4
2014-Nov-22 09:00N 29°42' W 063°56'0 0.1 1023.0 25.4
2014-Nov-22 08:00N 29°43' W 063°56'0 0.0 1022.7 25.4
2014-Nov-22 07:00N 29°43' W 063°56'0 0.0 1022.5 25.4
2014-Nov-22 06:00N 29°43' W 063°56'0 0.4 1022.4 25.4
2014-Nov-22 05:00N 29°42' W 063°57'2 0.5 1023.1 25.4
2014-Nov-22 02:00N 29°41' W 063°55'3 2.7 1023.1 25.4
2014-Nov-22 01:00N 29°42' W 063°52'1 0.3 1022.8 25.4
2014-Nov-21 21:00N 29°43' W 063°52'0 0.0 1021.5 25.5
2014-Nov-21 19:00N 29°43' W 063°52'1 0.6 1020.0 25.5
2014-Nov-21 17:00N 29°44' W 063°50'2 0.8 1020.5 25.5
2014-Nov-21 15:00N 29°45' W 063°51'0 0.2 1021.3 25.4
2014-Nov-21 14:00N 29°46' W 063°51'1 0.8 1021.2 25.4
2014-Nov-21 13:00N 29°46' W 063°52'1 0.4 1020.6 25.4
2014-Nov-21 10:00N 29°45' W 063°52'1 1.2 1018.8 25.4
2014-Nov-21 09:00N 29°46' W 063°52'2 1.6 1018.2 25.4
2014-Nov-21 08:00N 29°45' W 063°51'0 0.0 1018.5 25.4
2014-Nov-21 07:00N 29°45' W 063°51'0 0.0 1018.7 25.5
2014-Nov-21 06:00N 29°45' W 063°51'0 0.0 1019.0 25.5
2014-Nov-21 05:00N 29°45' W 063°51'1 0.6 1019.0 25.5
2014-Nov-21 03:00N 29°44' W 063°50'1 0.5 1019.5 25.5
2014-Nov-21 02:00N 29°44' W 063°50'1 1.2 1019.6 25.5
2014-Nov-21 01:00N 29°44' W 063°49'1 0.5 1019.7 25.5
2014-Nov-21 00:00N 29°44' W 063°50'1 1.3 1019.7 25.5
2014-Nov-20 23:00N 29°44' W 063°48'0 0.3 1019.0 25.5
2014-Nov-20 22:00N 29°44' W 063°49'1 0.8 1018.6 25.5
2014-Nov-20 21:00N 29°45' W 063°49'1 0.5 1018.6 25.5
2014-Nov-20 19:00N 29°45' W 063°48'0 0.0 1018.5 25.5
2014-Nov-20 18:00N 29°45' W 063°48'0 0.2 1019.0 25.5
2014-Nov-20 17:00N 29°45' W 063°48'0 0.2 1019.5 25.5
2014-Nov-20 15:00N 29°45' W 063°49'0 0.0 1021.1 25.5
2014-Nov-20 14:00N 29°45' W 063°49'0 0.0 1021.2 25.5
2014-Nov-20 13:00N 29°45' W 063°49'2 0.5 1020.4 25.5
2014-Nov-20 10:00N 29°44' W 063°50'1 0.6 1018.7 25.5
2014-Nov-20 09:00N 29°43' W 063°50'1 0.8 1018.1 25.5
2014-Nov-20 08:00N 29°43' W 063°49'0 0.0 1018.0 25.5
2014-Nov-20 06:00N 29°43' W 063°49'2 0.4 1019.1 25.5
2014-Nov-20 02:00N 29°42' W 063°47'0 0.2 1020.0 25.5
2014-Nov-20 01:00N 29°42' W 063°47'1 0.7 1019.8 25.5
2014-Nov-20 00:00N 29°43' W 063°47'0 0.2 1019.9 25.5
2014-Nov-19 23:00N 29°43' W 063°47'1 0.5 1019.8 25.5
2014-Nov-19 22:00N 29°43' W 063°47'1 0.8 1019.4 25.5
2014-Nov-19 21:00N 29°43' W 063°46'0 0.0 1019.2 25.5
2014-Nov-19 20:00N 29°43' W 063°46'1 0.3 1018.7 25.6
2014-Nov-19 18:00N 29°43' W 063°47'0 0.0 1018.6 25.6
2014-Nov-19 17:00N 29°43' W 063°47'1 0.3 1019.0 25.5
2014-Nov-19 15:00N 29°43' W 063°47'0 0.0 1020.7 25.5
2014-Nov-19 14:00N 29°43' W 063°47'1 1.0 1021.2 25.5
2014-Nov-19 13:00N 29°43' W 063°49'0 0.0 1020.6 25.5
2014-Nov-19 11:00N 29°43' W 063°49'1 1.0 1019.5 25.5
2014-Nov-19 10:00N 29°42' W 063°49'0 0.3 1019.2 25.5
2014-Nov-19 09:00N 29°42' W 063°49'1 0.8 1019.0 25.5
2014-Nov-19 08:00N 29°41' W 063°48'0 0.0 1018.7 25.5
2014-Nov-19 07:00N 29°41' W 063°48'0 0.0 1018.9 25.5
2014-Nov-19 06:00N 29°41' W 063°48'2 0.5 1018.6 25.5
2014-Nov-19 03:00N 29°41' W 063°46'0 0.0 1019.3 25.5
2014-Nov-19 02:00N 29°41' W 063°46'1 0.8 1019.5 25.5
2014-Nov-19 01:00N 29°42' W 063°47'1 0.2 1019.8 25.6
2014-Nov-18 22:00N 29°41' W 063°47'1 0.6 1019.4 25.6
2014-Nov-18 21:00N 29°42' W 063°47'1 0.3 1019.4 25.6
2014-Nov-18 18:00N 29°42' W 063°48'0 0.1 1020.5 25.6
2014-Nov-18 15:00N 29°41' W 063°47'2 2.5 1022.0 25.6
2014-Nov-18 14:00N 29°39' W 063°48'   1022.4 25.6

Dump ship's entire track history